Saint Bonnet de Bellac- Haute Vienne - France
Donnes mto: vendredi, 15/06/2012
Date Horaire Temp. E. Hum. E. P.atmo. Pluie Vent Direction Direction Ensoleilleme Solaire P. de rose Temp au vent Rafales
15/06/2012 00:00 17,1 C 74 % 1011,7 hPa 0,0 mm 0,0 km/h (0 Bft) SE 135 0 min 0 W/m 12,4 C 17,1 C 0,0 km/h (0 Bft)
15/06/2012 00:10 16,8 C 76 % 1011,8 hPa 0,0 mm 0,0 km/h (0 Bft) SE 135 0 min 0 W/m 12,5 C 16,8 C 0,0 km/h (0 Bft)
15/06/2012 00:20 16,6 C 77 % 1011,8 hPa 0,0 mm 0,0 km/h (0 Bft) SE 135 0 min 0 W/m 12,5 C 16,6 C 0,0 km/h (0 Bft)
15/06/2012 00:30 16,5 C 79 % 1012,2 hPa 0,0 mm 1,1 km/h (1 Bft) O-NO 292 0 min 0 W/m 12,8 C 16,5 C 1,1 km/h (1 Bft)
15/06/2012 00:40 16,3 C 80 % 1012,3 hPa 0,0 mm 1,4 km/h (1 Bft) O 270 0 min 0 W/m 12,8 C 16,3 C 4,0 km/h (1 Bft)
15/06/2012 00:50 16,6 C 78 % 1012,3 hPa 0,0 mm 1,1 km/h (1 Bft) O-SO 247 0 min 0 W/m 12,7 C 16,6 C 4,0 km/h (1 Bft)
15/06/2012 01:00 16,7 C 77 % 1012,5 hPa 0,0 mm 0,0 km/h (0 Bft) O-SO 247 0 min 0 W/m 12,6 C 16,7 C 3,2 km/h (1 Bft)
15/06/2012 01:10 16,6 C 76 % 1012,6 hPa 0,0 mm 2,5 km/h (1 Bft) SO 225 0 min 0 W/m 12,3 C 16,6 C 4,0 km/h (1 Bft)
15/06/2012 01:20 16,6 C 74 % 1012,8 hPa 0,0 mm 0,0 km/h (0 Bft) SO 225 0 min 0 W/m 11,9 C 16,6 C 0,0 km/h (0 Bft)
15/06/2012 01:30 16,6 C 74 % 1012,9 hPa 0,0 mm 0,4 km/h (0 Bft) SO 225 0 min 0 W/m 11,9 C 16,6 C 3,2 km/h (1 Bft)
15/06/2012 01:40 16,5 C 74 % 1012,9 hPa 0,0 mm 0,0 km/h (0 Bft) S-SO 202 0 min 0 W/m 11,8 C 16,5 C 0,0 km/h (0 Bft)
15/06/2012 01:50 16,3 C 74 % 1012,9 hPa 0,0 mm 0,7 km/h (0 Bft) SO 225 0 min 0 W/m 11,7 C 16,3 C 0,7 km/h (0 Bft)
15/06/2012 02:00 16,3 C 75 % 1013,2 hPa 0,0 mm 3,2 km/h (1 Bft) S-SO 202 0 min 0 W/m 11,9 C 16,3 C 6,5 km/h (2 Bft)
15/06/2012 02:10 16,3 C 75 % 1013,2 hPa 0,0 mm 1,1 km/h (1 Bft) S-SO 202 0 min 0 W/m 11,9 C 16,3 C 4,3 km/h (1 Bft)
15/06/2012 02:20 16,1 C 76 % 1013,3 hPa 0,0 mm 3,2 km/h (1 Bft) S 180 0 min 0 W/m 11,9 C 16,1 C 6,1 km/h (2 Bft)
15/06/2012 02:30 15,9 C 77 % 1013,5 hPa 0,0 mm 1,8 km/h (1 Bft) S-SO 202 0 min 0 W/m 11,9 C 15,9 C 4,0 km/h (1 Bft)
15/06/2012 02:40 15,8 C 77 % 1013,4 hPa 0,0 mm 2,2 km/h (1 Bft) S-SO 202 0 min 0 W/m 11,8 C 15,8 C 4,3 km/h (1 Bft)
15/06/2012 02:50 15,7 C 78 % 1013,3 hPa 0,0 mm 0,7 km/h (0 Bft) S-SO 202 0 min 0 W/m 11,9 C 15,7 C 3,6 km/h (1 Bft)
15/06/2012 03:02 15,6 C 79 % 1013,6 hPa 0,0 mm 1,1 km/h (1 Bft) S 180 0 min 0 W/m 12,0 C 15,6 C 1,1 km/h (1 Bft)
15/06/2012 03:10 15,6 C 79 % 1013,4 hPa 0,0 mm 0,0 km/h (0 Bft) S-SE 157 0 min 0 W/m 12,0 C 15,6 C 0,0 km/h (0 Bft)
15/06/2012 03:20 15,4 C 79 % 1013,5 hPa 0,0 mm 0,0 km/h (0 Bft) S 180 0 min 0 W/m 11,8 C 15,4 C 0,0 km/h (0 Bft)
15/06/2012 03:30 15,4 C 79 % 1013,4 hPa 0,0 mm 0,0 km/h (0 Bft) S 180 0 min 0 W/m 11,8 C 15,4 C 0,0 km/h (0 Bft)
15/06/2012 03:40 15,4 C 80 % 1013,5 hPa 0,0 mm 0,0 km/h (0 Bft) S 180 0 min 0 W/m 12,0 C 15,4 C 0,0 km/h (0 Bft)
15/06/2012 03:50 15,4 C 80 % 1013,4 hPa 0,0 mm 0,0 km/h (0 Bft) S 180 0 min 0 W/m 12,0 C 15,4 C 0,0 km/h (0 Bft)
15/06/2012 04:00 15,4 C 80 % 1013,7 hPa 0,0 mm 0,0 km/h (0 Bft) S 180 0 min 0 W/m 12,0 C 15,4 C 0,0 km/h (0 Bft)
15/06/2012 04:10 15,4 C 80 % 1013,8 hPa 0,0 mm 0,0 km/h (0 Bft) S-SO 202 0 min 0 W/m 12,0 C 15,4 C 0,0 km/h (0 Bft)
15/06/2012 04:20 15,5 C 81 % 1013,8 hPa 0,0 mm 1,8 km/h (1 Bft) S-SO 202 0 min 0 W/m 12,3 C 15,5 C 4,3 km/h (1 Bft)
15/06/2012 04:30 15,6 C 81 % 1013,9 hPa 0,0 mm 1,8 km/h (1 Bft) S-SO 202 0 min 0 W/m 12,3 C 15,6 C 2,9 km/h (1 Bft)
15/06/2012 04:40 15,6 C 80 % 1013,8 hPa 0,0 mm 1,8 km/h (1 Bft) SO 225 0 min 0 W/m 12,2 C 15,6 C 4,3 km/h (1 Bft)
15/06/2012 04:50 15,6 C 80 % 1013,7 hPa 0,0 mm 1,4 km/h (1 Bft) S-SO 202 0 min 0 W/m 12,2 C 15,6 C 4,3 km/h (1 Bft)
15/06/2012 05:00 15,6 C 80 % 1013,7 hPa 0,0 mm 0,0 km/h (0 Bft) SO 225 0 min 0 W/m 12,2 C 15,6 C 3,2 km/h (1 Bft)
15/06/2012 05:10 15,6 C 80 % 1013,8 hPa 0,0 mm 0,7 km/h (0 Bft) S-SO 202 0 min 0 W/m 12,2 C 15,6 C 4,0 km/h (1 Bft)
15/06/2012 05:20 15,6 C 81 % 1013,9 hPa 0,0 mm 0,0 km/h (0 Bft) SO 225 0 min 0 W/m 12,3 C 15,6 C 0,0 km/h (0 Bft)
15/06/2012 05:30 15,6 C 81 % 1014,0 hPa 0,0 mm 0,4 km/h (0 Bft) SO 225 0 min 0 W/m 12,3 C 15,6 C 3,6 km/h (1 Bft)
15/06/2012 05:40 15,6 C 81 % 1014,3 hPa 0,0 mm 1,4 km/h (1 Bft) O-SO 247 0 min 0 W/m 12,3 C 15,6 C 4,7 km/h (1 Bft)
15/06/2012 05:50 15,5 C 81 % 1014,4 hPa 0,0 mm 5,8 km/h (2 Bft) S-SO 202 0 min 0 W/m 12,3 C 15,5 C 6,8 km/h (2 Bft)
15/06/2012 06:00 15,5 C 81 % 1014,4 hPa 0,0 mm 6,5 km/h (2 Bft) O-SO 247 0 min 0 W/m 12,3 C 15,5 C 10,1 km/h (2 Bft)
15/06/2012 06:10 15,4 C 81 % 1014,6 hPa 0,0 mm 1,4 km/h (1 Bft) O-SO 247 0 min 0 W/m 12,2 C 15,4 C 4,3 km/h (1 Bft)
15/06/2012 06:20 15,4 C 81 % 1014,7 hPa 0,0 mm 4,3 km/h (1 Bft) SO 225 0 min 0 W/m 12,2 C 15,4 C 4,3 km/h (1 Bft)
15/06/2012 06:30 15,4 C 82 % 1014,7 hPa 0,0 mm 2,5 km/h (1 Bft) O-SO 247 0 min 0 W/m 12,3 C 15,4 C 4,3 km/h (1 Bft)
15/06/2012 06:40 15,4 C 82 % 1014,7 hPa 0,0 mm 2,5 km/h (1 Bft) S-SO 202 0 min 0 W/m 12,3 C 15,4 C 4,3 km/h (1 Bft)
15/06/2012 06:50 15,3 C 82 % 1014,8 hPa 0,0 mm 2,5 km/h (1 Bft) SO 225 0 min 0 W/m 12,2 C 15,3 C 4,0 km/h (1 Bft)
15/06/2012 07:00 15,4 C 83 % 1014,8 hPa 0,0 mm 2,5 km/h (1 Bft) S-SO 202 0 min 0 W/m 12,5 C 15,4 C 6,1 km/h (2 Bft)
15/06/2012 07:10 15,4 C 83 % 1014,8 hPa 0,0 mm 0,7 km/h (0 Bft) S-SO 202 0 min 0 W/m 12,5 C 15,4 C 4,3 km/h (1 Bft)
15/06/2012 07:20 15,4 C 83 % 1014,9 hPa 0,0 mm 2,5 km/h (1 Bft) S-SO 202 0 min 0 W/m 12,5 C 15,4 C 4,3 km/h (1 Bft)
15/06/2012 07:30 15,4 C 83 % 1015,2 hPa 0,0 mm 2,5 km/h (1 Bft) SO 225 0 min 0 W/m 12,5 C 15,4 C 7,9 km/h (2 Bft)
15/06/2012 07:40 15,5 C 83 % 1015,3 hPa 0,0 mm 5,4 km/h (2 Bft) S-SO 202 0 min 0 W/m 12,6 C 15,5 C 9,4 km/h (2 Bft)
15/06/2012 07:50 15,6 C 83 % 1015,5 hPa 0,0 mm 1,4 km/h (1 Bft) S 180 0 min 0 W/m 12,7 C 15,6 C 6,8 km/h (2 Bft)
15/06/2012 08:00 15,8 C 83 % 1015,6 hPa 0,0 mm 2,9 km/h (1 Bft) SO 225 0 min 0 W/m 12,9 C 15,8 C 6,5 km/h (2 Bft)
15/06/2012 08:10 15,8 C 82 % 1015,7 hPa 0,0 mm 3,2 km/h (1 Bft) SO 225 0 min 0 W/m 12,7 C 15,8 C 5,8 km/h (2 Bft)
15/06/2012 08:20 16,0 C 82 % 1015,7 hPa 0,0 mm 5,4 km/h (2 Bft) SO 225 0 min 0 W/m 12,9 C 16,0 C 8,3 km/h (2 Bft)
15/06/2012 08:30 16,1 C 82 % 1015,8 hPa 0,0 mm 4,7 km/h (1 Bft) SO 225 0 min 0 W/m 13,0 C 16,1 C 7,9 km/h (2 Bft)
15/06/2012 08:40 16,2 C 82 % 1015,9 hPa 0,0 mm 1,8 km/h (1 Bft) SO 225 0 min 0 W/m 13,1 C 16,2 C 3,6 km/h (1 Bft)
15/06/2012 08:50 16,3 C 82 % 1016,0 hPa 0,0 mm 5,8 km/h (2 Bft) SO 225 0 min 0 W/m 13,2 C 16,3 C 10,4 km/h (2 Bft)
15/06/2012 09:00 16,5 C 81 % 1016,2 hPa 0,0 mm 6,5 km/h (2 Bft) O-SO 247 0 min 0 W/m 13,2 C 16,5 C 10,8 km/h (2 Bft)
15/06/2012 09:10 16,8 C 80 % 1016,3 hPa 0,0 mm 6,8 km/h (2 Bft) SO 225 0 min 0 W/m 13,3 C 16,8 C 10,8 km/h (2 Bft)
15/06/2012 09:20 17,1 C 77 % 1016,4 hPa 0,0 mm 8,3 km/h (2 Bft) S-SO 202 0 min 0 W/m 13,0 C 17,1 C 15,8 km/h (3 Bft)
15/06/2012 09:30 17,1 C 76 % 1016,6 hPa 0,0 mm 9,4 km/h (2 Bft) S-SO 202 0 min 0 W/m 12,8 C 17,1 C 9,4 km/h (2 Bft)
15/06/2012 09:40 17,2 C 76 % 1016,6 hPa 0,0 mm 7,9 km/h (2 Bft) S-SO 202 0 min 0 W/m 12,9 C 17,2 C 12,2 km/h (2 Bft)
15/06/2012 09:50 17,3 C 74 % 1016,7 hPa 0,0 mm 1,8 km/h (1 Bft) S-SO 202 0 min 0 W/m 12,6 C 17,3 C 1,8 km/h (1 Bft)
15/06/2012 10:00 17,4 C 73 % 1016,6 hPa 0,0 mm 2,5 km/h (1 Bft) SO 225 0 min 0 W/m 12,5 C 17,4 C 6,1 km/h (2 Bft)
15/06/2012 10:10 17,9 C 72 % 1016,7 hPa 0,0 mm 5,4 km/h (2 Bft) SO 225 0 min 0 W/m 12,8 C 17,9 C 8,6 km/h (2 Bft)
15/06/2012 10:20 18,8 C 70 % 1016,7 hPa 0,0 mm 5,4 km/h (2 Bft) SO 225 0 min 0 W/m 13,2 C 18,8 C 7,6 km/h (2 Bft)
15/06/2012 10:30 18,8 C 66 % 1016,8 hPa 0,0 mm 8,6 km/h (2 Bft) SO 225 0 min 0 W/m 12,3 C 18,8 C 13,0 km/h (3 Bft)
15/06/2012 10:40 18,7 C 66 % 1016,8 hPa 0,0 mm 3,2 km/h (1 Bft) O-SO 247 0 min 0 W/m 12,2 C 18,7 C 7,2 km/h (2 Bft)
15/06/2012 10:50 18,8 C 65 % 1016,9 hPa 0,0 mm 6,1 km/h (2 Bft) S-SO 202 0 min 0 W/m 12,1 C 18,8 C 12,6 km/h (3 Bft)
15/06/2012 11:00 18,8 C 65 % 1016,9 hPa 0,0 mm 0,7 km/h (0 Bft) O-SO 247 0 min 0 W/m 12,1 C 18,8 C 4,0 km/h (1 Bft)
15/06/2012 11:10 18,8 C 65 % 1016,9 hPa 0,0 mm 6,5 km/h (2 Bft) S-SO 202 0 min 0 W/m 12,1 C 18,8 C 10,4 km/h (2 Bft)
15/06/2012 11:20 18,8 C 63 % 1016,9 hPa 0,0 mm 5,4 km/h (2 Bft) SO 225 0 min 0 W/m 11,6 C 18,8 C 11,5 km/h (2 Bft)
15/06/2012 11:30 18,8 C 62 % 1017,0 hPa 0,0 mm 3,6 km/h (1 Bft) S-SO 202 0 min 0 W/m 11,4 C 18,8 C 7,9 km/h (2 Bft)
15/06/2012 11:40 19,0 C 63 % 1017,1 hPa 0,0 mm 7,2 km/h (2 Bft) O 270 0 min 0 W/m 11,8 C 19,0 C 9,4 km/h (2 Bft)
15/06/2012 11:50 19,3 C 63 % 1017,0 hPa 0,0 mm 6,8 km/h (2 Bft) S-SO 202 0 min 0 W/m 12,1 C 19,3 C 9,0 km/h (2 Bft)
15/06/2012 12:00 19,6 C 63 % 1017,0 hPa 0,0 mm 4,0 km/h (1 Bft) SO 225 0 min 0 W/m 12,4 C 19,6 C 9,4 km/h (2 Bft)
15/06/2012 12:10 19,9 C 61 % 1017,0 hPa 0,0 mm 5,8 km/h (2 Bft) SO 225 0 min 0 W/m 12,2 C 19,9 C 9,0 km/h (2 Bft)
15/06/2012 12:20 20,1 C 61 % 1016,9 hPa 0,0 mm 5,4 km/h (2 Bft) S 180 0 min 0 W/m 12,3 C 20,1 C 5,4 km/h (2 Bft)
15/06/2012 12:30 20,3 C 61 % 1016,9 hPa 0,0 mm 8,3 km/h (2 Bft) S-SO 202 0 min 0 W/m 12,5 C 20,3 C 11,9 km/h (2 Bft)
15/06/2012 12:40 20,4 C 60 % 1016,9 hPa 0,0 mm 6,5 km/h (2 Bft) SO 225 0 min 0 W/m 12,4 C 20,4 C 13,3 km/h (3 Bft)
15/06/2012 12:50 20,8 C 60 % 1016,9 hPa 0,0 mm 8,6 km/h (2 Bft) S 180 0 min 0 W/m 12,7 C 20,8 C 13,0 km/h (3 Bft)
15/06/2012 13:00 21,3 C 59 % 1016,8 hPa 0,0 mm 9,7 km/h (2 Bft) S 180 0 min 0 W/m 13,0 C 21,3 C 9,7 km/h (2 Bft)
15/06/2012 13:10 21,1 C 58 % 1017,0 hPa 0,0 mm 2,2 km/h (1 Bft) S-SO 202 0 min 0 W/m 12,5 C 21,1 C 3,6 km/h (1 Bft)
15/06/2012 13:20 21,4 C 59 % 1016,9 hPa 0,0 mm 4,7 km/h (1 Bft) SO 225 0 min 0 W/m 13,0 C 21,4 C 4,7 km/h (1 Bft)
15/06/2012 13:30 21,4 C 60 % 1016,7 hPa 0,0 mm 5,8 km/h (2 Bft) SO 225 0 min 0 W/m 13,3 C 21,4 C 7,9 km/h (2 Bft)
15/06/2012 13:40 21,4 C 59 % 1016,6 hPa 0,0 mm 5,8 km/h (2 Bft) S-SO 202 0 min 0 W/m 13,0 C 21,4 C 10,4 km/h (2 Bft)
15/06/2012 13:50 21,6 C 60 % 1016,5 hPa 0,0 mm 5,4 km/h (2 Bft) S-SO 202 0 min 0 W/m 13,5 C 21,6 C 5,4 km/h (2 Bft)
15/06/2012 14:00 21,8 C 59 % 1016,4 hPa 0,0 mm 4,0 km/h (1 Bft) SO 225 0 min 0 W/m 13,4 C 21,8 C 6,1 km/h (2 Bft)
15/06/2012 14:10 22,1 C 59 % 1016,4 hPa 0,0 mm 3,2 km/h (1 Bft) SO 225 0 min 0 W/m 13,7 C 22,1 C 7,6 km/h (2 Bft)
15/06/2012 14:20 22,2 C 58 % 1016,3 hPa 0,0 mm 9,4 km/h (2 Bft) S-SO 202 0 min 0 W/m 13,5 C 22,2 C 17,6 km/h (3 Bft)
15/06/2012 14:30 22,3 C 58 % 1016,3 hPa 0,0 mm 1,4 km/h (1 Bft) SO 225 0 min 0 W/m 13,6 C 22,3 C 4,0 km/h (1 Bft)
15/06/2012 14:40 22,6 C 61 % 1016,1 hPa 0,0 mm 3,2 km/h (1 Bft) S 180 0 min 0 W/m 14,7 C 22,6 C 7,6 km/h (2 Bft)
15/06/2012 14:50 22,8 C 58 % 1016,2 hPa 0,0 mm 2,9 km/h (1 Bft) SO 225 0 min 0 W/m 14,1 C 22,8 C 6,5 km/h (2 Bft)
15/06/2012 15:00 22,8 C 60 % 1016,1 hPa 0,0 mm 5,8 km/h (2 Bft) S-SO 202 0 min 0 W/m 14,6 C 22,8 C 9,7 km/h (2 Bft)
15/06/2012 15:10 22,9 C 59 % 1015,9 hPa 0,0 mm 6,1 km/h (2 Bft) SO 225 0 min 0 W/m 14,5 C 22,9 C 10,8 km/h (2 Bft)
15/06/2012 15:20 23,1 C 58 % 1015,8 hPa 0,0 mm 4,3 km/h (1 Bft) SO 225 0 min 0 W/m 14,4 C 23,1 C 4,3 km/h (1 Bft)
15/06/2012 15:30 23,3 C 60 % 1015,9 hPa 0,0 mm 2,2 km/h (1 Bft) O 270 0 min 0 W/m 15,1 C 23,3 C 4,3 km/h (1 Bft)
15/06/2012 15:40 23,3 C 58 % 1015,7 hPa 0,0 mm 4,0 km/h (1 Bft) O-SO 247 0 min 0 W/m 14,6 C 23,3 C 10,4 km/h (2 Bft)
15/06/2012 15:50 23,3 C 56 % 1015,6 hPa 0,0 mm 1,4 km/h (1 Bft) S-SO 202 0 min 0 W/m 14,0 C 23,3 C 3,6 km/h (1 Bft)
15/06/2012 16:00 23,2 C 57 % 1015,5 hPa 0,0 mm 10,1 km/h (2 Bft) S-SO 202 0 min 0 W/m 14,2 C 23,2 C 13,7 km/h (3 Bft)
15/06/2012 16:10 22,9 C 57 % 1015,5 hPa 0,0 mm 5,4 km/h (2 Bft) SO 225 0 min 0 W/m 13,9 C 22,9 C 6,8 km/h (2 Bft)
15/06/2012 16:20 22,8 C 58 % 1015,4 hPa 0,0 mm 3,6 km/h (1 Bft) S 180 0 min 0 W/m 14,1 C 22,8 C 6,1 km/h (2 Bft)
15/06/2012 16:30 23,3 C 60 % 1015,3 hPa 0,0 mm 4,3 km/h (1 Bft) SO 225 0 min 0 W/m 15,1 C 23,3 C 8,3 km/h (2 Bft)
15/06/2012 16:40 23,8 C 57 % 1015,1 hPa 0,0 mm 6,8 km/h (2 Bft) SO 225 0 min 0 W/m 14,8 C 23,8 C 14,0 km/h (3 Bft)
15/06/2012 16:50 23,8 C 56 % 1015,0 hPa 0,0 mm 5,4 km/h (2 Bft) S-SE 157 0 min 0 W/m 14,5 C 23,8 C 9,0 km/h (2 Bft)
15/06/2012 17:00 24,1 C 56 % 1014,9 hPa 0,0 mm 4,7 km/h (1 Bft) SO 225 0 min 0 W/m 14,8 C 24,1 C 9,7 km/h (2 Bft)
15/06/2012 17:10 24,1 C 56 % 1014,8 hPa 0,0 mm 5,0 km/h (1 Bft) S-SO 202 0 min 0 W/m 14,8 C 24,1 C 8,3 km/h (2 Bft)
15/06/2012 17:20 24,4 C 57 % 1014,8 hPa 0,0 mm 2,5 km/h (1 Bft) O-SO 247 0 min 0 W/m 15,3 C 24,4 C 2,9 km/h (1 Bft)
15/06/2012 17:30 24,6 C 56 % 1014,8 hPa 0,0 mm 4,7 km/h (1 Bft) S-SO 202 0 min 0 W/m 15,2 C 24,6 C 11,2 km/h (2 Bft)
15/06/2012 17:40 24,7 C 54 % 1014,8 hPa 0,0 mm 3,2 km/h (1 Bft) SO 225 0 min 0 W/m 14,8 C 24,7 C 6,8 km/h (2 Bft)
15/06/2012 17:50 25,0 C 53 % 1014,8 hPa 0,0 mm 9,7 km/h (2 Bft) SO 225 0 min 0 W/m 14,7 C 25,0 C 21,6 km/h (4 Bft)
15/06/2012 18:00 24,9 C 52 % 1014,7 hPa 0,0 mm 9,0 km/h (2 Bft) SO 225 0 min 0 W/m 14,4 C 24,9 C 13,3 km/h (3 Bft)
15/06/2012 18:10 24,8 C 55 % 1014,5 hPa 0,0 mm 6,5 km/h (2 Bft) S-SO 202 0 min 0 W/m 15,1 C 24,8 C 10,4 km/h (2 Bft)
15/06/2012 18:20 24,9 C 54 % 1014,3 hPa 0,0 mm 8,6 km/h (2 Bft) SO 225 0 min 0 W/m 14,9 C 24,9 C 14,8 km/h (3 Bft)
15/06/2012 18:30 24,9 C 53 % 1014,3 hPa 0,0 mm 8,3 km/h (2 Bft) SO 225 0 min 0 W/m 14,6 C 24,9 C 12,2 km/h (2 Bft)
15/06/2012 18:40 24,8 C 55 % 1014,2 hPa 0,0 mm 4,3 km/h (1 Bft) S-SO 202 0 min 0 W/m 15,1 C 24,8 C 10,4 km/h (2 Bft)
15/06/2012 18:50 24,9 C 54 % 1014,1 hPa 0,0 mm 11,2 km/h (2 Bft) S-SO 202 0 min 0 W/m 14,9 C 24,9 C 12,6 km/h (3 Bft)
15/06/2012 19:00 24,8 C 55 % 1014,2 hPa 0,0 mm 5,8 km/h (2 Bft) SO 225 0 min 0 W/m 15,1 C 24,8 C 6,8 km/h (2 Bft)
15/06/2012 19:10 24,9 C 56 % 1014,2 hPa 0,0 mm 2,9 km/h (1 Bft) SO 225 0 min 0 W/m 15,5 C 24,9 C 6,8 km/h (2 Bft)
15/06/2012 19:20 25,0 C 55 % 1014,2 hPa 0,0 mm 8,3 km/h (2 Bft) S-SO 202 0 min 0 W/m 15,3 C 25,0 C 12,2 km/h (2 Bft)
15/06/2012 19:30 24,8 C 54 % 1014,3 hPa 0,0 mm 6,8 km/h (2 Bft) SO 225 0 min 0 W/m 14,8 C 24,8 C 13,7 km/h (3 Bft)
15/06/2012 19:40 24,6 C 55 % 1014,4 hPa 0,0 mm 10,1 km/h (2 Bft) S 180 0 min 0 W/m 14,9 C 24,6 C 11,5 km/h (2 Bft)
15/06/2012 19:50 24,5 C 55 % 1014,5 hPa 0,0 mm 5,4 km/h (2 Bft) SO 225 0 min 0 W/m 14,9 C 24,5 C 5,4 km/h (2 Bft)
15/06/2012 20:00 24,5 C 55 % 1014,5 hPa 0,0 mm 8,6 km/h (2 Bft) S-SO 202 0 min 0 W/m 14,9 C 24,5 C 11,9 km/h (2 Bft)
15/06/2012 20:10 24,1 C 56 % 1014,6 hPa 0,0 mm 7,6 km/h (2 Bft) SO 225 0 min 0 W/m 14,8 C 24,1 C 10,4 km/h (2 Bft)
15/06/2012 20:20 23,9 C 57 % 1014,6 hPa 0,0 mm 5,8 km/h (2 Bft) SO 225 0 min 0 W/m 14,9 C 23,9 C 7,6 km/h (2 Bft)
15/06/2012 20:30 23,6 C 58 % 1014,6 hPa 0,0 mm 5,0 km/h (1 Bft) SO 225 0 min 0 W/m 14,8 C 23,6 C 6,8 km/h (2 Bft)
15/06/2012 20:40 23,4 C 60 % 1014,6 hPa 0,0 mm 1,8 km/h (1 Bft) S-SO 202 0 min 0 W/m 15,2 C 23,4 C 4,3 km/h (1 Bft)
15/06/2012 20:50 23,0 C 60 % 1014,6 hPa 0,0 mm 2,2 km/h (1 Bft) O-SO 247 0 min 0 W/m 14,8 C 23,0 C 4,3 km/h (1 Bft)
15/06/2012 21:00 22,8 C 61 % 1014,6 hPa 0,0 mm 4,0 km/h (1 Bft) SO 225 0 min 0 W/m 14,9 C 22,8 C 9,0 km/h (2 Bft)
15/06/2012 21:10 22,4 C 61 % 1014,6 hPa 0,0 mm 2,9 km/h (1 Bft) S-SO 202 0 min 0 W/m 14,5 C 22,4 C 6,1 km/h (2 Bft)
15/06/2012 21:20 22,1 C 62 % 1014,6 hPa 0,0 mm 0,0 km/h (0 Bft) S-SO 202 0 min 0 W/m 14,5 C 22,1 C 0,0 km/h (0 Bft)
15/06/2012 21:30 21,8 C 63 % 1014,7 hPa 0,0 mm 0,0 km/h (0 Bft) S 180 0 min 0 W/m 14,4 C 21,8 C 1,4 km/h (1 Bft)
15/06/2012 21:40 21,3 C 65 % 1014,7 hPa 0,0 mm 0,0 km/h (0 Bft) S-SO 202 0 min 0 W/m 14,4 C 21,3 C 0,0 km/h (0 Bft)
15/06/2012 21:50 20,9 C 66 % 1014,7 hPa 0,0 mm 0,0 km/h (0 Bft) S-SO 202 0 min 0 W/m 14,3 C 20,9 C 0,0 km/h (0 Bft)
15/06/2012 22:00 20,5 C 67 % 1014,8 hPa 0,0 mm 0,0 km/h (0 Bft) S-SO 202 0 min 0 W/m 14,2 C 20,5 C 0,0 km/h (0 Bft)
15/06/2012 22:10 20,1 C 67 % 1014,9 hPa 0,0 mm 0,0 km/h (0 Bft) S-SO 202 0 min 0 W/m 13,8 C 20,1 C 0,0 km/h (0 Bft)
15/06/2012 22:20 19,8 C 68 % 1015,1 hPa 0,0 mm 0,0 km/h (0 Bft) S-SO 202 0 min 0 W/m 13,7 C 19,8 C 0,0 km/h (0 Bft)
15/06/2012 22:30 19,4 C 70 % 1015,2 hPa 0,0 mm 0,7 km/h (0 Bft) S-SO 202 0 min 0 W/m 13,8 C 19,4 C 3,6 km/h (1 Bft)
15/06/2012 22:40 19,2 C 70 % 1015,2 hPa 0,0 mm 1,4 km/h (1 Bft) S-SO 202 0 min 0 W/m 13,6 C 19,2 C 4,3 km/h (1 Bft)
15/06/2012 22:50 18,9 C 71 % 1015,2 hPa 0,0 mm 2,9 km/h (1 Bft) S 180 0 min 0 W/m 13,5 C 18,9 C 4,3 km/h (1 Bft)
15/06/2012 23:00 18,9 C 71 % 1015,1 hPa 0,0 mm 1,1 km/h (1 Bft) S-SO 202 0 min 0 W/m 13,5 C 18,9 C 3,2 km/h (1 Bft)
15/06/2012 23:10 18,7 C 72 % 1015,1 hPa 0,0 mm 0,0 km/h (0 Bft) S-SO 202 0 min 0 W/m 13,5 C 18,7 C 0,0 km/h (0 Bft)
15/06/2012 23:20 18,4 C 72 % 1015,1 hPa 0,0 mm 2,5 km/h (1 Bft) O-NO 292 0 min 0 W/m 13,3 C 18,4 C 4,3 km/h (1 Bft)
15/06/2012 23:30 18,2 C 74 % 1015,1 hPa 0,0 mm 0,0 km/h (0 Bft) S-SO 202 0 min 0 W/m 13,5 C 18,2 C 0,0 km/h (0 Bft)
15/06/2012 23:40 17,9 C 75 % 1015,4 hPa 0,0 mm 0,0 km/h (0 Bft) O-SO 247 0 min 0 W/m 13,4 C 17,9 C 0,0 km/h (0 Bft)
15/06/2012 23:50 17,9 C 75 % 1015,6 hPa 0,0 mm 0,0 km/h (0 Bft) S-SO 202 0 min 0 W/m 13,4 C 17,9 C 0,0 km/h (0 Bft)
_ Min-Heure 06:50 18:00 00:00 - 23:50 - - - - 11:30 06:50 23:50
Minimum _ 15,3 C 52 % 1011,7 hPa - 0,0 km/h (0 Bft) - - - - 11,4 C 15,3 C 0,0 km/h (0 Bft)
_ Max-Heure 19:20 08:00 11:40 23:50 18:50 - - 23:50 23:50 19:10 19:20 17:50
Maximum _ 25,0 C 83 % 1017,1 hPa 0,0 mm 11,2 km/h
S-SO (2 Bft)
- - 0 min 0 W/m 15,5 C 25,0 C 21,6 km/h
SO (4 Bft)
Moyenne _ 19,4 C 69 % 1015,0 hPa #0,0 mm 3,6 km/h (1 Bft) S-SO - #0 min. 0 W/m 13,2 C 19,4 C 6,3 km/h (2 Bft)
Saint Bonnet de Bellac- Haute Vienne - France